Location: ???
(35.5616°N, 139.7977°E)
Time: 20:38:02
(UTC+00:00)

SL-8 R/B - Pass Details

Date: 17 November 2025
Orbit: 646 x 657 km, 48.4° (Epoch: 08 December)

Event Time Altitude Azimuth Distance (km) Brightness Sun altitude
Exits shadow 19:55:19 - 216° (SW) 2,666 6.6 -17.1°
Reaches altitude 10° 19:56:56 10° 213° (SSW) 2,055 6.0 -16.7°
Maximum altitude 20:01:31 51° 138° (SE) 825 4.5 -15.8°
Drops below altitude 10° 20:06:07 10° 63° (ENE) 2,059 7.0 -14.9°
Sets 20:08:30 0° 58° (ENE) 2,971 7.8 -14.4°
